Location: ??????????
(41.2581°N, 22.8006°E)
Time: 21:52:24
(UTC+00:00)

YAOGAN 1 - Pass Details

Date: 13 December 2025
Orbit: 605 x 607 km, 97.8° (Epoch: 21 January)

Event Time Altitude Azimuth Distance (km) Brightness Sun altitude
Rises 17:16:15 0° 178° (S) 2,851 6.1 -24.7°
Reaches altitude 10° 17:18:28 10° 183° (S) 1,952 5.2 -25.1°
Maximum altitude 17:22:36 53° 260° (W) 753 3.2 -25.9°
Drops below altitude 10° 17:26:47 10° 338° (NNW) 1,967 5.3 -26.7°
Sets 17:29:01 0° 343° (NNW) 2,875 6.1 -27.1°
